EUTELSAT 117 WEST A

Last updated on Tue Sep 22 2026 00:03:12 GMT+0000 (Coordinated Universal Time)

1 39122U 13012A 26264.53725756 .00000000 00000+0 00000+0 0 9992 2 39122 0.0112 164.6582 0002938 15.9716 256.3982 1.00269840 49396
UTC large
Height (km)
Speed (km/s)
/
Latitude / Longitude
Inclination (degrees)
Orbital Period (minutes)
Azimuth
Elevation
Range (km)
Doppler Factor

Next 0 passes for location: London (51.5072 / 0.1276)

No passes found over London.
EUTELSAT 117 WEST A